Total_Precipitation_Accumulation
0.00 0.00 0.00 0.00 0.01 0.01 0.03 0.05 0.10 0.10 0.15 0.22 0.20 0.15 0.13 0.10 0.09 0.11 0.09 0.10 0.10 0.13
0.00 0.00 0.00 0.00 0.01 0.01 0.02 0.06 0.06 0.04 0.03 0.05 0.04 0.07 0.12 0.12 0.12 0.10 0.07 0.05 0.05 0.06
0.01 0.00 0.00 0.00 0.01 0.01 0.01 0.03 0.05 0.02 0.02 0.03 0.02 0.02 0.04 0.07 0.10 0.12 0.11 0.09 0.10 0.09
0.00 0.00 0.00 0.00 0.00 0.02 0.03 0.03 0.05 0.05 0.06 0.05 0.05 0.04 0.02 0.02 0.02 0.12 0.14 0.12 0.16 0.18
0.00 0.00 0.01 0.01 0.01 0.01 0.02 0.01 0.01 0.01 0.01 0.01 0.00 0.01 0.03 0.03 0.05 0.13 0.24 0.35 0.36 0.33
0.01 0.02 0.00 0.00 0.02 0.02 0.01 0.02 0.01 0.01 0.01 0.01 0.00 0.02 0.22 0.36 0.32 0.31 0.37 0.32 0.28 0.30
0.06 0.06 0.10 0.11 0.17 0.16 0.09 0.04 0.02 0.02 0.05 0.07 0.06 0.09 0.18 0.18 0.24 0.25 0.27 0.24 0.16 0.11
0.04 0.04 0.08 0.09 0.09 0.15 0.21 0.16 0.11 0.09 0.08 0.12 0.14 0.23 0.16 0.05 0.01 0.02 0.04 0.05 0.02 0.01
0.00 0.00 0.00 0.01 0.00 0.02 0.02 0.01 0.01 0.00 0.00 0.00 0.03 0.10 0.02 0.00 0.00 0.00 0.00 0.00 0.00 0.00
0.00 0.00 0.00 0.00 0.00 0.00 0.00 0.00 0.00 0.00 0.00 0.00 0.00 0.00 0.00 0.00 0.00 0.00 0.00 0.00 0.00 0.00
0.00 0.00 0.00 0.00 0.00 0.00 0.00 0.00 0.00 0.00 0.00 0.00 0.00 0.00 0.00 0.00 0.00 0.00 0.00 0.00 0.00 0.00
0.00 0.00 0.00 0.00 0.00 0.00 0.00 0.00 0.00 0.00 0.00 0.00 0.00 0.00 0.00 0.00 0.00 0.00 0.00 0.00 0.00 0.00
0.00 0.00 0.00 0.00 0.00 0.00 0.00 0.00 0.00 0.00 0.00 0.00 0.00 0.00 0.00 0.00 0.00 0.00 0.00 0.00 0.00 0.00
0.00 0.00 0.00 0.00 0.00 0.00 0.00 0.00 0.00 0.00 0.00 0.00 0.00 0.00 0.00 0.00 0.00 0.00 0.00 0.00 0.00 0.00